User: anonymous   Login
Location: Gniazdowice
(50.2124°N, 20.2673°E)
Time: 08:45:27
(UTC+00:00)
Language:

Meteor 1-28 Rocket - Orbit

View from above orbital plane
View from above orbital plane
View from above satellite
View from above satellite

Ground track
Ground track

The orbit data is extracted from the following two-line orbital elements,

1 10114U 77057B   24196.92483677  .00009953  00000-0  36166-3 0  9992
2 10114  97.5125 341.4657 0009185 282.7021  77.3191 15.28447253575728
Epoch (UTC): 14 July 2024 22:11:45
Eccentricity: 0.0009185
inclination: 97.5125°
perigee height: 474 km
apogee height: 487 km
right ascension of ascending node: 341.4657°
argument of perigee: 282.7021°
revolutions per day: 15.28447253
mean anomaly at epoch: 77.3191°
orbit number at epoch: 57572

The dashed part of the orbit path shows where the satellite is in the earth's shadow,  

DLR